Regional Weather Roundup
Issued by NWS Little Rock, AR

Home | Current Version | Previous Version | Graphics & Text | Print | Product List | Glossary On
Versions: 1 2 3 4 5 6 7 8 9 10 11 12 13 14 15 16 17 18 19 20 21 22 23 24 25 26 27
000
ASUS44 KLZK 221805
RWRLZK

WEATHER ROUNDUP FOR ARKANSAS
NATIONAL WEATHER SERVICE LITTLE ROCK AR
100 PM CDT WED OCT 22 2014

NOTE: "FAIR" INDICATES FEW OR NO CLOUDS BELOW 12,000 FEET WITH NO
SIGNIFICANT WEATHER AND/OR OBSTRUCTIONS TO VISIBILITY.

ARZ001-003-010-029-221900-
NORTHWEST ARKANSAS

CITY           SKY/WX    TMP DP  RH WIND       PRES   REMARKS
FAYETTEVILLE   FAIR      70  52  52 S5        30.20F
6HR MIN TEMP:  44; 6HR MAX TEMP:  71;

FORT SMITH     FAIR      70  52  52 E12       30.19F
6HR MIN TEMP:  54; 6HR MAX TEMP:  70;

HARRISON       FAIR      65  50  58 E12       30.22F
6HR MIN TEMP:  46; 6HR MAX TEMP:  65;

BENTONVILLE    FAIR      70  54  56 S8        30.20F
6HR MIN TEMP:  52; 6HR MAX TEMP:  70;

ROGERS         FAIR      69  53  56 E7        30.21F
6HR MIN TEMP:  52; 6HR MAX TEMP:  69;

SILOAM SPGS    PTSUNNY   73  54  49 SW8       30.21F
6HR MIN TEMP:  52; 6HR MAX TEMP:  73;

HIGHFILL       FAIR      71  54  54 SE5       30.20F
6HR MIN TEMP:  50; 6HR MAX TEMP:  71;

SPRINGDALE     MOSUNNY   70  55  60 SE7       30.22F
$$

ARZ004-005-016-221900-
NORTH CENTRAL ARKANSAS

CITY           SKY/WX    TMP DP  RH WIND       PRES   REMARKS
BATESVILLE     FAIR      66  45  45 E6        30.26F
6HR MIN TEMP:  45; 6HR MAX TEMP:  66;

FLIPPIN        FAIR      64  45  48 E5        30.25F
6HR MIN TEMP:  43; 6HR MAX TEMP:  64;

MTN HOME       FAIR      64  47  53 VRB5      30.23F
6HR MIN TEMP:  47; 6HR MAX TEMP:  64;

$$

ARZ040-041-221900-
WEST CENTRAL ARKANSAS

CITY           SKY/WX    TMP DP  RH WIND       PRES   REMARKS
MENA           FAIR      73  57  56 CALM      30.20F
MOUNT IDA      FAIR      70  54  56 VRB5      30.19F
6HR MIN TEMP:  50; 6HR MAX TEMP:  70;

$$

ARZ009-017-025-026-028-221900-
NORTHEAST ARKANSAS

CITY           SKY/WX    TMP DP  RH WIND       PRES   REMARKS
CORNING        FAIR      63  45  51 NE6       30.27F
JONESBORO      FAIR      63  42  46 E9G17     30.25F
6HR MIN TEMP:  48; 6HR MAX TEMP:  64;

NEWPORT        FAIR      65  44  46 VRB5      30.26F
6HR MIN TEMP:  45; 6HR MAX TEMP:  65;

WALNUT RIDGE   FAIR      63  39  42 N6        30.27S
6HR MIN TEMP:  46; 6HR MAX TEMP:  63;

BLYTHEVILLE    FAIR      66  43  43 NE6       30.25F
6HR MIN TEMP:  43; 6HR MAX TEMP:  67;

NW BLYTHEVILLE SUNNY     63  43  48 NE10      30.25F
$$

ARZ022-023-033-042-044-221900-
CENTRAL ARKANSAS

CITY           SKY/WX    TMP DP  RH WIND       PRES   REMARKS
LITTLE ROCK    FAIR      69  46  43 NE8       30.23F
6HR MIN TEMP:  51; 6HR MAX TEMP:  69;

N LITTLE ROCK  SUNNY     68  52  55 E6        30.23F
6HR MIN TEMP:  52; 6HR MAX TEMP:  69;

JACKSONVILLE   FAIR      67  48  50 NE7       30.23F
6HR MIN TEMP:  50; 6HR MAX TEMP:  68; 6HR PCP: TRACE;

SEARCY         FAIR      67  48  50 NE9       30.25F
6HR MIN TEMP:  47; 6HR MAX TEMP:  67;

HOT SPRINGS    FAIR      69  50  50 E8        30.21F
6HR MIN TEMP:  49; 6HR MAX TEMP:  70; 6HR PCP: TRACE;

RUSSELLVILLE   FAIR      68  49  50 VRB7      30.21F
6HR MIN TEMP:  49; 6HR MAX TEMP:  68;

$$

ARZ036-221900-
EAST ARKANSAS

CITY           SKY/WX    TMP DP  RH WIND       PRES   REMARKS
WEST MEMPHIS   FAIR      65  44  46 E8        30.22F
6HR MIN TEMP:  46; 6HR MAX TEMP:  65;

$$

ARZ050-053-066-070-073-221900-
SOUTHWEST ARKANSAS

CITY           SKY/WX    TMP DP  RH WIND       PRES   REMARKS
ARKADELPHIA    FAIR      72  55  54 E6        30.20F
6HR MIN TEMP:  51; 6HR MAX TEMP:  72;

CAMDEN         FAIR      75  50  41 N7        30.19F
TEXARKANA      FAIR      74  50  42 NE10      30.18F
6HR MIN TEMP:  54; 6HR MAX TEMP:  74;

EL DORADO      FAIR      74  50  42 NE15      30.18F
6HR MIN TEMP:  48; 6HR MAX TEMP:  75;

DE QUEEN       FAIR      73  53  49 E5        30.17F
6HR MIN TEMP:  53; 6HR MAX TEMP:  74;

$$

ARZ056-057-069-221900-
SOUTHEAST ARKANSAS

CITY           SKY/WX    TMP DP  RH WIND       PRES   REMARKS
PINE BLUFF     FAIR      69  48  47 NE8       30.22F
6HR MIN TEMP:  49; 6HR MAX TEMP:  69;

STUTTGART      FAIR      68  46  45 N10       30.23F
6HR MIN TEMP:  50; 6HR MAX TEMP:  68;

MONTICELLO     FAIR      71  49  45 NE10      30.20F
6HR MIN TEMP:  49; 6HR MAX TEMP:  71; 6HR PCP: TRACE;


$$





USA.gov is the U.S. government's official web portal to all federal, state and local government web resources and services.